AEROCUBE 5C

Last updated on Tue Jul 01 2025 00:03:44 GMT+0000 (Coordinated Universal Time)

1 40965U 15058B 25181.56936520 .00002887 00000+0 25683-3 0 9997 2 40965 64.7682 274.2589 0161786 193.7655 165.9021 14.88679147313265
UTC large
Height (km)
Speed (km/s)
/
Latitude / Longitude
Inclination (degrees)
Orbital Period (minutes)
Azimuth
Elevation
Range (km)
Doppler Factor

Next 0 passes for location: London (51.5072 / 0.1276)

Sorry there are no passes over London.